User: anonymous   Login
Location: Unspecified
(0.0000°N, 0.0000°E)
Time: 18:43:53
(UTC+00:00)
Language:

Aussat K1 - Orbit

View from above orbital plane
View from above orbital plane
View from above satellite
View from above satellite

Ground track
Ground track

The orbit data is extracted from the following two-line orbital elements,

1 15993U 85076B   17205.18878951 -.00000229 +00000-0 +00000-0 0  9999
2 15993 015.3221 006.8728 0005037 274.9448 073.9121 00.99769044087160
Epoch (UTC): 24 July 2017 04:31:51
Eccentricity: 0.0005037
inclination: 15.3221°
perigee height: 35906 km
apogee height: 35949 km
right ascension of ascending node: 6.8728°
argument of perigee: 274.9448°
revolutions per day: 0.99769044
mean anomaly at epoch: 73.9121°
orbit number at epoch: 8716

The dashed part of the orbit path shows where the satellite is in the earth's shadow,  

DLR